Погода в Норфолке

США     36°50′46″N   76°17′00″W
темп.,
°C
ветер,
м/с
пор.,
м/с
влажн.,
%
обл.,
%
осадки,
мм/ч
давл.,
гПа
погр.,
м
26 июня, вс
вс2623:00+19ююв37864 0.0 1021169
02:00+19ю23930 0.0 102183
05:00+18юз23954 0.0 102159
08:00+22ююз22777 0.0 1022220
11:00+29юз214014 0.0 10211190
14:00+32ююв332954 0.0 10192025
17:00+31ююв65355 0.0 10171800
20:00+25ююв51064100 0.0 1018420
27 июня, пн
пн2723:00+23ю5116988 0.0 1018472
02:00+21ю4117688 0.0 1018438
05:00+21ююз41278100 0.0 1017429
08:00+23ююз51170100 0.0 1018512
11:00+26юз586099 0.0 1018887
14:00+26зюз3569100 0.3 1017648
17:00+23зюз2681100 0.4 1017288
20:00+21ююв1296100 3.2 101884
28 июня, вт
вт2823:00+21ю2498100 1.4 1019197
02:00+21ссз3897100 5.3 1019594
05:00+20с41084100 0.7 1020471
08:00+21ссв6962100 0.7 1022868
11:00+23ссв56465 0.0 10241004
14:00+25ссв443922 0.0 10241117
17:00+25ссв33395 0.0 10231017
20:00+21всв235274 0.0 102383
29 июня, ср
ср2923:00+18ююв1267100 0.0 102465
02:00+18ююв2270100 0.0 102460
05:00+17ю1173100 0.0 102418
08:00+21сз0062100 0.0 1025177
11:00+27вюв11405 0.0 1025969
14:00+30юв23350 0.0 10241929
17:00+29ююв55380 0.0 10221376
20:00+24ююв47580 0.0 1023404
30 июня, чт
чт3023:00+20ю37840 0.0 1024203
02:00+20ююз26930 0.0 1024175
05:00+20юз25950 0.0 1024136
08:00+24зюз23760 0.0 1024274
11:00+30зюз23510 0.0 10231286
14:00+33ссв343869 0.0 10212557
17:00+30юв44485 0.0 10211000
20:00+26юв37596 0.0 1021300